Regional Weather Roundup
Issued by NWS

Home | Current Version | Previous Version | Text Only | Print | Product List | Glossary On
Versions: 1 2 3 4 5 6 7 8 9 10 11 12 13 14 15 16 17 18 19 20 21 22 23 24 25 26 27 28 29 30 31 32 33 34 35 36 37 38 39 40 41 42 43 44 45 46 47 48 49 50
000
ASUS43 KMKX 050511
RWRWI

WISCONSIN REGIONAL WEATHER ROUNDUP
NATIONAL WEATHER SERVICE MILWAUKEE/SULLIVAN WI
1200 AM CDT SUN JUL 05 2015

NOTE: "FAIR" INDICATES FEW OR NO CLOUDS BELOW 12,000 FEET WITH NO
SIGNIFICANT WEATHER AND/OR OBSTRUCTIONS TO VISIBILITY.

WIZ001-002-006>008-014>016-023>028-050600-
NORTHWEST WISCONSIN

CITY           SKY/WX    TMP DP  RH WIND       PRES   REMARKS
SUPERIOR ARPT  PTCLDY    58  57  96 E3        29.94S
ASHLAND        CLEAR     56  55  97 CALM      29.94S FOG
HAYWARD        CLOUDY    64  61  90 CALM      29.96S FOG
SIREN          CLEAR     70  65  84 S3        29.95R HAZE
CUMBERLAND     CLEAR     64  63  94 S6        29.97R FOG
RICE LAKE      CLEAR     67  63  89 SE3       29.98R FOG
CHETEK         CLEAR     66  65  96 CALM      29.97R FOG
LADYSMITH      CLEAR     65  63  93 SE3       30.00R FOG
EAU CLAIRE     CLEAR     69  64  84 S3        29.96R HAZE
MENOMONIE      CLEAR     69  64  83 CALM      29.97R
NEW RICHMOND   CLEAR     68  63  82 S5        29.97R HAZE
OSCEOLA        CLEAR     68  67  96 CALM      29.98R
$$

WIZ003>005-009-010-017-018-050600-
NORTH CENTRAL WISCONSIN

CITY           SKY/WX    TMP DP  RH WIND       PRES   REMARKS
MANITOWISH WTR CLEAR     58  58 100 CALM      29.99S FOG
ARBOR VITAE    CLEAR     63  61  92 CALM      30.00R FOG
WOODRUFF       CLEAR     63  61  92 CALM      30.00R FOG
RHINELANDER    CLEAR     64  60  87 S3        30.02R
EAGLE RIVER    CLEAR     64  63  94 S3        30.01R
LAND O LAKES   PTCLDY    60  58  96 CALM      30.02R
PHILLIPS       CLEAR     66  63  89 CALM      29.99R
TOMAHAWK       CLEAR     60  59  95 CALM      30.01R FOG
MEDFORD        CLEAR     67  64  89 SW5       30.00R
MERRILL        CLEAR     61  61  99 CALM      30.01R FOG
$$

WIZ029-030-035-036-043>047-050600-
CENTRAL WISCONSIN

CITY           SKY/WX    TMP DP  RH WIND       PRES   REMARKS
WAUSAU         CLEAR     70  64  81 S3        29.99R HAZE
MOSINEE        CLEAR     66  64  94 SW6       30.01R
MARSHFIELD     MOCLDY    65  61  87 S5        30.00R FOG
STEVENS POINT  CLEAR     66  61  82 S3        30.01R
WAUPACA        CLEAR     66  65  94 CALM      29.99R
WAUTOMA        CLEAR     64  64 100 CALM      30.00R
WISC RAPIDS    CLEAR     66  61  84 S3        30.01R
CAMP DOUGLAS   CLEAR     63  63 100 MISG      30.00R
$$

WIZ011>013-019>022-031-037>040-048>050-050600-
NORTHEAST WISCONSIN

CITY           SKY/WX    TMP DP  RH WIND       PRES   REMARKS
ANTIGO         PTCLDY    64  64  97 SE6       30.02R
SHAWANO        PTCLDY    69  63  80 S5        29.99R
OCONTO         PTCLDY    63  63 100 CALM      29.99R
STURGEON BAY   PTCLDY    61  55  82 SE7       30.03R
GREEN BAY      CLEAR     65  61  87 CALM      30.00R
MANITOWOC      CLEAR     61  59  93 MISG      30.02R FOG
APPLETON       CLEAR     68  61  77 S6        30.01R
CLINTONVILLE   PTCLDY    66  63  88 SE3       29.99R
OSHKOSH        CLEAR     68  62  81 S7        30.00R
$$

WIZ032>034-041-042-053>061-050600-
SOUTHWEST WISCONSIN

CITY           SKY/WX    TMP DP  RH WIND       PRES   REMARKS
LA CROSSE      CLEAR     70  66  87 S5        29.97R
SPARTA         CLEAR     62  59  91 CALM      30.00R
VIROQUA        CLEAR     67  61  80 S6        30.01R
BOSCOBEL       FOG       63  61  93 CALM      30.00R VSB 1
PRAIRIE DU CHI CLEAR     64  60  87 CALM      29.99S
PLATTEVILLE    CLEAR     66  63  88 S7        30.01S
$$

WIZ056-057-062-063-064-067-068-050600-
SOUTH CENTRAL WISCONSIN

CITY           SKY/WX    TMP DP  RH WIND       PRES   REMARKS
REEDSBURG      CLEAR     64  61  88 CALM      30.00R
BARABOO/DELLS  CLEAR     62  58  86 CALM      30.00S
LONE ROCK      CLEAR     62  58  86 NE3       30.01R
MINERAL POINT  CLEAR     66  61  82 S3        30.02S
MADISON        CLEAR     66  62  87 CALM      30.01R FOG
MIDDLETON      CLEAR     65  62  93 SW3       30.02R
WATERTOWN      CLEAR     65  65 100 CALM      30.01S
MONROE         CLEAR     66  61  82 S6        30.03R
JANESVILLE     CLEAR     66  61  82 CALM      30.02R HAZE
$$

WIZ051-052-058>065-066-070>072-050600-
SOUTHEAST WISCONSIN

CITY           SKY/WX    TMP DP  RH WIND       PRES   REMARKS
MILWAUKEE      PTCLDY    68  55  63 S6        30.02S
WAUKESHA       CLEAR     64  59  82 S6        30.03F
MILWAUKEE/TIMM CLEAR     68  54  60 S7        30.03S
RACINE         CLEAR     64  54  69 S3        30.04S
BURLINGTON     CLEAR     60  59  96 CALM      30.03S FOG
KENOSHA        CLEAR     66  55  67 S5        30.03S
FOND DU LAC    CLEAR     65  62  90 S5        30.01R
SHEBOYGAN      CLEAR     61  57  87 S3        30.01S
WEST BEND      CLEAR     63  61  94 CALM      30.02S FOG
JUNEAU         CLEAR     66  62  86 SE3       30.03R
$$

LSZ147-162-050600-
LAKE SUPERIOR

STATION/POSITION TIME  TEMP    WIND        PRES    WAVE
                       AIR SEA DIR/SP/G            HT/PER
                 (UTC) (F)     (DEG/KT/KT) (MB)    (FT/S)
W MID LAKE BUOY  0450   45 39   30/  8/ 10 1014.2S   0
DEVILS ISLAND    0500   56      40/  6/  7 1013.8F
SAXON HARBOR     0440   59        CALM     1013.5R
$$

LMZ867-665-643>646-050600-
LAKE MICHIGAN

STATION/POSITION TIME  TEMP    WIND        PRES    WAVE
                       AIR SEA DIR/SP/G            HT/PER
                 (UTC) (F)     (DEG/KT/KT) (MB)    (FT/S)
CHAMBERS ISLAND  0400   65     140/  4/  8 1015.6F
S GREEN BAY BUOY 0400   67 69  150/ 10/ 12 1016.6F
N MID LAKE BUOY  0450   55 49  200/  6/  6 1016.4R   0
NORTHPORT PIER   0400   62     170/  4/  6 1015.9S
SISTER BAY       0314   62     150/  9/ 12   N/A
ALGOMA LAKESHORE 0411          150/  4/  6   N/A
KEWAUNEE LAKESHO 0400   61     130/  2/  4 1015.5R
SHEBOYGAN LAKESH 0500   61     180/  9/ 10 1016.4F
PORT WASHINGTON  0400   64     180/  2/  2 1016.9R
ATWATER BUOY     0500   65 61  160/  8/ 10 1017.6F
MILWAUKEE LAKESH 0400   69     170/  3/  4   N/A
KENOSHA   LAKESH 0500   68     200/  5/  6 1016.6S
$$

TC  - TEMPERATURE IN CELSIUS
VSB - VISIBILITY IN STATUTE MILES
WCI - WIND CHILL INDEX
HX  - HEAT INDEX



USA.gov is the U.S. government's official web portal to all federal, state and local government web resources and services.